User: anonymous   Login
Location: Hopkins Observatory
(42.6965°N, 73.1843°W)
Time: 12:26:02
(UTC-04:00)
Language:

RS-15 - Orbit

View from above orbital plane
View from above orbital plane
View from above satellite
View from above satellite

Ground track
Ground track

The orbit data is extracted from the following two-line orbital elements,

1 23439U 94085A   14304.18590669 -.00000037  00000-0  15358-3 0  7357
2 23439 064.8223 331.8068 0146970 056.1032 305.3774 11.27561262817324
Epoch (UTC): 31 October 2014 04:27:42
Eccentricity: 0.0146970
inclination: 64.8223°
perigee height: 1899 km
apogee height: 2146 km
right ascension of ascending node: 331.8068°
argument of perigee: 56.1032°
revolutions per day: 11.27561262
mean anomaly at epoch: 305.3774°
orbit number at epoch: 81732

The dashed part of the orbit path shows where the satellite is in the earth's shadow,  

DLR